Weather History for KSAT - October, 2012

Change the Weather History Date:

Monday, October 29, 2012

  Actual Average Record
Temperature  
Mean Temperature 55 °F 67 °F  
Max Temperature 69 °F 78 °F 89 °F (1971)
Min Temperature 41 °F 56 °F 33 °F (1970)
Degree Days  
Heating Degree Days 10 2  
Month to date heating degree days 49 24  
Since 1 July heating degree days 49 26  
Cooling Degree Days 0 5  
Month to date cooling degree days 238 211  
Year to date cooling degree days 3478 3045  
Growing Degree Days 6 (Base 50)    
Moisture  
Dew Point 38 °F    
Average Humidity 57    
Maximum Humidity 83    
Minimum Humidity 30    
Precipitation  
Precipitation 0.00 in 0.11 in 1.61 in (1960)
Month to date precipitation 2.40 3.88  
Year to date precipitation 38.76 27.85  
Snow  
Snow 0.00 in - - ()
Month to date snowfall 0.0  
Since 1 July snowfall 0.0  
Since 1 September snowfall 0.0  
Snow Depth 0.00 in    
Sea Level Pressure  
Sea Level Pressure 30.19 in    
Wind  
Wind Speed 3 mph (North)    
Max Wind Speed 9 mph    
Max Gust Speed 14 mph    
Visibility 10 miles    
Events      
T = Trace of Precipitation, MM = Missing Value Source: NWS Daily Summary

Daily Weather History Graph

Daily Weather History Graph

Search for Another Location

Airport or City:

Trip Planner

Search our weather history database for the weather conditions in past years. The results will help you decide how hot, cold, wet, or windy it might be!

Date:

Astronomy

Oct. 29, 2012 Rise Set
Actual Time 7:45 AM CDT 6:49 PM CDT
Civil Twilight 7:20 AM CDT 7:13 PM CDT
Nautical Twilight 6:52 AM CDT 7:41 PM CDT
Astronomical Twilight 6:24 AM CDT 8:09 PM CDT
Moon 6:45 PM CDT (10/29) 7:34 AM CDT (10/29)
Length of Visible Light 11h 53m
Length of Day
11h 04m
Full, 100% of the Moon is Illuminated
Oct 29
Full
Oct 29
Full
Nov 6
Last Quarter
Nov 13
New
Nov 20
First Quarter

Hourly Weather History & Observations

Time (CDT) Temp. Windchill Dew Point Humidity Pressure Visibility Wind Dir Wind Speed Gust Speed Precip Events Conditions
12:53 AM 48.9 °F - 34.0 °F 56% 30.20 in 10.0 mi Calm Calm - N/A   Clear
1:53 AM 46.9 °F - 37.9 °F 71% 30.20 in 10.0 mi Calm Calm - N/A   Clear
2:53 AM 46.0 °F - 37.0 °F 71% 30.20 in 10.0 mi Calm Calm - N/A   Clear
3:53 AM 46.0 °F 44.8 °F 35.1 °F 66% 30.20 in 10.0 mi North 3.5 mph - N/A   Clear
4:53 AM 43.0 °F - 37.0 °F 80% 30.21 in 10.0 mi Calm Calm - N/A   Clear
5:53 AM 44.1 °F 41.5 °F 37.0 °F 76% 30.20 in 10.0 mi NW 4.6 mph - N/A   Clear
6:53 AM 42.1 °F 39.2 °F 37.0 °F 82% 30.22 in 10.0 mi NW 4.6 mph - N/A   Clear
7:53 AM 43.0 °F 41.3 °F 37.0 °F 80% 30.24 in 10.0 mi WNW 3.5 mph - N/A   Clear
8:53 AM 50.0 °F - 39.0 °F 66% 30.26 in 10.0 mi NNW 3.5 mph - N/A   Clear
9:53 AM 54.0 °F - 37.0 °F 53% 30.28 in 10.0 mi ENE 6.9 mph - N/A   Clear
10:53 AM 57.9 °F - 36.0 °F 44% 30.27 in 10.0 mi ESE 6.9 mph - N/A   Clear
11:53 AM 61.0 °F - 36.0 °F 39% 30.26 in 10.0 mi Calm Calm - N/A   Partly Cloudy
12:53 PM 63.0 °F - 36.0 °F 37% 30.23 in 10.0 mi Variable 4.6 mph - N/A   Partly Cloudy
1:53 PM 64.9 °F - 34.0 °F 32% 30.20 in 10.0 mi Calm Calm - N/A   Clear
2:53 PM 66.2 °F - 35.6 °F 32% 30.19 in 10.0 mi ENE 3.5 mph - N/A   Clear
3:53 PM 68.0 °F - 35.1 °F 30% 30.14 in 10.0 mi Calm Calm - N/A   Clear
4:53 PM 68.0 °F - 37.9 °F 33% 30.12 in 10.0 mi SE 4.6 mph - N/A   Clear
5:53 PM 66.9 °F - 37.9 °F 34% 30.11 in 10.0 mi Calm Calm - N/A   Clear
6:53 PM 61.0 °F - 39.9 °F 46% 30.12 in 10.0 mi SSE 5.8 mph - N/A   Clear
7:53 PM 63.0 °F - 39.0 °F 41% 30.12 in 10.0 mi SSE 3.5 mph - N/A   Clear
8:53 PM 57.9 °F - 41.0 °F 53% 30.12 in 10.0 mi South 3.5 mph - N/A   Clear
9:53 PM 54.0 °F - 45.0 °F 72% 30.13 in 10.0 mi NNW 3.5 mph - N/A   Clear
10:53 PM 52.0 °F - 46.0 °F 80% 30.13 in 10.0 mi Calm Calm - N/A   Clear
11:53 PM 51.1 °F - 45.0 °F 80% 30.12 in 10.0 mi NW 3.5 mph - N/A   Clear